Vorticity
6 6 6 8 9 10 13 15 19 20 20 16 7 5 -1 -5 13 16 -0 0 9 11 9 3 1 0 0 8 14 14 9 5 3 4 7 7 8 12 15 16 14 11 9 8 7 6 5 5 6 6 7 7 7 7 8 7 7 6 5 4 3 3 3 3 3 2 1 1 3 5 5 5 4 3 3 3 4 4 4 5 6 7 8 8 8
1 1 1 2 4 5 7 7 9 11 12 14 11 6 3 -1 4 10 8 8 8 8 10 9 9 7 2 1 3 6 8 8 5 2 3 5 5 6 8 12 15 14 12 10 9 8 6 5 5 5 5 5 6 6 6 6 7 7 6 6 5 3 3 3 2 3 3 2 2 4 4 6 6 5 3 2 3 4 4 4 4 5 7 8 7
1 -0 0 0 1 1 2 3 3 6 6 8 9 5 3 -2 -5 1 6 9 8 7 8 8 11 12 10 8 4 3 4 7 8 6 3 1 3 4 5 7 10 12 13 12 11 10 9 8 6 6 5 5 5 5 5 5 5 6 6 6 6 6 5 4 3 3 3 3 4 5 4 4 4 5 5 4 3 2 3 4 3 2 4 6 6
7 4 2 -1 0 -0 0 2 2 4 5 5 7 7 7 4 -1 -1 -2 -0 2 2 2 3 3 3 5 8 8 8 7 6 6 8 8 5 2 1 2 5 7 9 9 9 10 10 9 9 8 7 7 7 7 6 6 5 4 4 4 5 5 6 6 6 6 4 4 3 4 4 5 5 4 4 4 5 4 3 2 2 3 2 1 3 5
7 6 7 5 5 5 5 6 6 8 8 8 8 8 8 7 6 5 3 3 1 -1 1 4 3 1 -1 -1 1 4 7 7 6 5 6 7 6 5 4 3 3 6 7 6 6 7 8 8 8 9 7 7 7 7 8 7 6 5 3 3 3 4 4 5 6 6 6 5 4 4 4 5 5 5 4 4 4 4 4 3 2 3 3 2 3
11 11 12 13 14 15 17 20 20 21 22 22 23 22 22 21 19 17 15 14 11 7 5 6 7 7 5 2 1 1 2 5 6 7 6 4 4 5 6 7 4 4 6 6 6 5 5 5 6 7 8 8 8 7 7 7 8 7 5 4 3 3 3 4 5 5 5 5 5 5 4 4 4 5 5 5 5 4 4 5 4 3 3 3 3
23 25 27 30 34 37 38 39 37 35 34 34 35 36 37 39 40 39 39 38 36 31 24 18 14 11 9 8 6 6 6 5 5 5 7 9 8 5 4 6 6 6 5 6 7 7 6 5 5 5 5 6 8 8 8 8 8 8 8 7 5 4 2 2 3 3 4 5 4 4 4 4 4 5 4 4 5 4 4 4 5 4 4 3 3
33 35 37 35 33 30 25 23 21 20 20 19 19 20 20 22 25 30 35 40 45 48 48 45 40 33 26 19 12 8 8 9 8 7 6 8 10 12 10 8 7 7 5 5 7 10 10 8 7 7 6 5 4 4 6 7 8 8 9 10 9 8 6 4 3 2 2 3 4 5 4 4 4 4 4 4 4 4 4 4 4 5 5 5 4
34 28 23 15 10 8 6 7 8 9 11 12 13 13 13 10 9 11 18 25 33 40 44 48 52 54 52 47 39 30 21 15 11 10 10 9 9 11 12 13 12 10 7 3 3 9 13 12 10 9 9 9 8 5 3 3 5 6 7 8 9 10 10 9 8 6 3 2 2 3 3 4 4 4 4 4 4 3 3 3 4 4 4 5 5
19 11 5 2 4 6 8 11 13 15 16 17 19 20 20 17 10 7 11 19 28 35 38 38 40 45 50 54 55 54 48 39 29 21 17 14 13 11 9 10 11 11 12 7 1 3 8 12 14 13 10 9 10 10 7 4 2 2 3 4 5 6 8 8 9 10 9 7 5 4 4 3 3 3 3 4 4 4 3 2 2 3 3 4 5
9 3 2 5 10 12 14 17 17 18 18 16 18 20 23 23 14 8 8 12 18 28 35 38 36 34 36 40 45 50 52 53 50 44 36 28 24 20 16 12 9 8 10 10 6 4 3 5 9 13 13 10 10 11 10 8 6 5 4 3 4 4 4 5 6 7 8 9 8 8 8 7 5 4 3 3 4 4 4 3 2 2 2 3 3
5 3 8 13 15 16 18 19 17 17 17 14 13 16 23 26 16 7 7 8 8 12 20 28 34 36 35 34 35 38 42 47 51 52 51 47 43 38 34 29 23 16 12 10 8 7 5 4 4 8 12 11 10 10 10 11 10 9 7 5 5 4 4 5 5 5 6 6 7 7 9 10 10 9 7 6 5 4 5 5 4 4 3 3 2
7 10 15 16 14 16 16 18 20 22 22 19 14 12 20 28 22 9 6 6 5 5 7 11 17 24 30 34 34 34 34 37 41 45 48 51 51 50 48 45 41 37 30 22 16 11 8 8 7 8 10 10 9 7 8 10 10 11 11 10 9 7 6 5 5 5 6 7 7 6 6 6 7 8 9 9 8 7 6 6 5 5 5 4 4
13 15 17 15 13 16 17 18 21 26 28 23 15 10 14 26 28 16 6 4 5 7 8 8 8 10 14 20 25 29 31 32 32 34 37 40 45 48 49 50 49 48 47 44 37 29 20 15 14 15 15 14 11 8 7 8 8 9 10 11 12 12 11 9 7 6 6 7 8 8 8 7 5 5 6 7 8 8 8 7 7 7 6 6 6
17 15 15 14 13 15 17 18 19 25 31 27 16 10 9 18 28 25 15 10 10 13 15 15 13 11 10 10 11 15 21 26 29 29 28 29 32 36 40 44 47 48 48 49 49 47 41 31 25 23 23 21 20 18 15 14 13 11 9 9 9 11 12 12 11 10 7 6 6 6 8 9 9 9 8 8 8 7 8 7 7 8 8 7 7
15 12 12 13 13 14 15 15 16 20 27 28 21 14 11 12 19 24 22 19 18 18 18 17 16 15 15 14 13 12 11 13 18 24 28 28 26 28 30 34 39 42 44 45 45 46 47 44 38 34 32 30 28 28 28 27 25 22 19 15 12 10 10 11 12 13 13 11 9 8 6 6 7 9 10 10 9 9 8 8 8 8 8 8 8
12 9 10 12 13 14 13 13 14 14 18 24 24 21 19 17 16 19 20 20 18 15 14 13 12 12 13 15 16 16 15 13 11 13 19 26 28 27 27 29 31 34 38 41 42 42 42 44 43 39 36 34 30 30 32 33 33 32 31 29 25 20 17 14 13 13 13 14 14 13 12 9 8 8 8 9 10 10 10 9 8 8 7 7 8
9 7 8 11 11 12 13 13 14 14 13 17 20 21 20 18 16 15 14 12 10 9 9 8 9 10 11 13 14 15 17 18 16 12 11 17 26 29 28 27 27 29 32 35 39 41 41 42 40 36 34 35 33 31 30 31 31 32 34 34 34 32 29 26 24 21 19 17 17 16 15 14 12 10 9 8 8 8 9 10 9 9 9 7 7
5 5 6 8 8 10 13 15 16 16 15 14 13 14 13 10 9 9 9 10 10 11 12 12 13 13 12 12 13 14 15 16 18 17 12 10 17 26 30 30 28 28 29 31 33 36 38 39 38 34 32 33 34 32 31 30 29 30 30 31 34 35 35 34 33 32 31 29 27 25 23 20 18 16 14 12 10 8 7 8 9 10 10 10 9
2 2 2 3 5 9 13 17 18 18 18 16 12 9 8 9 11 14 16 17 17 18 18 17 16 15 15 14 14 15 16 16 17 19 17 11 10 17 26 31 32 30 29 30 30 30 31 33 33 32 31 30 29 29 29 29 29 29 29 30 32 35 38 41 42 42 42 41 40 37 35 32 28 24 21 19 17 15 12 10 9 9 9 9 9
3 1 1 0 4 10 14 18 21 21 21 20 17 15 15 17 18 18 18 17 17 17 17 16 16 15 14 13 14 16 17 18 19 19 20 16 10 10 16 22 28 32 32 32 31 31 30 30 30 30 29 27 26 26 27 27 27 28 30 32 34 36 38 41 43 43 42 42 43 43 43 44 42 38 34 31 28 26 23 20 17 14 11 10 9
4 2 1 -0 4 11 16 18 22 23 23 22 20 19 18 17 14 12 12 13 15 16 15 15 15 13 12 12 14 16 18 20 21 21 22 21 14 9 10 12 16 22 27 30 31 32 32 32 31 29 28 27 27 26 25 25 26 26 26 27 27 29 29 29 29 28 28 29 31 34 37 41 43 45 46 44 42 40 36 32 28 24 21 18 16
6 3 2 1 5 12 15 17 20 21 20 17 15 15 14 12 10 10 11 12 13 15 15 15 14 12 11 12 13 15 18 21 22 21 23 24 20 13 9 10 10 11 17 21 23 26 26 27 26 25 26 26 25 23 21 19 19 17 16 16 16 17 17 18 17 16 16 18 20 22 25 29 33 37 41 43 45 47 47 45 42 37 32 29 27
9 6 4 2 7 13 15 15 19 22 21 17 12 10 10 10 9 10 12 13 14 15 15 14 14 12 12 12 12 14 18 23 25 25 24 24 25 20 13 10 9 8 9 12 15 19 20 20 19 18 19 20 17 15 12 11 11 12 13 14 14 14 14 14 12 10 10 12 13 15 18 20 23 25 29 32 35 39 43 46 47 46 43 40 36
13 10 6 4 7 12 14 15 20 26 26 23 19 13 9 7 8 11 13 14 15 16 14 13 14 13 12 11 12 13 18 22 26 32 33 29 27 25 19 13 11 10 7 6 8 12 15 17 15 12 11 12 10 8 7 6 8 11 13 13 12 12 12 11 10 9 10 9 9 12 13 13 14 15 17 20 23 26 31 35 40 42 44 45 43
16 12 7 4 7 12 13 14 21 27 28 27 28 25 17 9 9 13 14 15 16 15 14 13 14 14 12 11 11 11 14 18 23 31 37 35 31 30 26 18 14 13 12 9 6 6 9 12 14 13 11 9 8 8 7 7 8 11 13 15 14 12 11 11 11 12 12 11 11 13 13 11 10 9 9 11 14 17 20 24 29 34 37 40 41
15 13 8 5 8 11 11 12 19 25 26 25 26 28 24 17 15 16 16 16 15 14 14 14 14 14 13 11 10 9 9 12 16 23 31 34 32 31 31 26 18 16 15 13 10 7 7 7 10 13 13 13 12 11 11 12 13 15 16 15 13 11 11 12 14 15 15 16 16 15 13 9 6 6 7 10 11 12 13 15 18 22 25 30 35
14 12 10 7 8 11 10 10 18 24 22 20 21 23 24 23 21 20 18 17 15 12 12 13 13 14 13 12 10 9 8 8 11 15 21 28 29 29 31 29 24 21 20 19 16 12 9 7 7 9 10 11 11 10 11 11 12 17 19 14 11 11 12 13 14 15 16 18 19 19 16 11 9 9 9 10 11 10 9 9 11 11 13 19 26
15 12 11 10 9 11 10 8 15 23 22 19 20 21 23 25 24 22 21 21 19 17 15 14 15 14 14 13 12 11 11 8 8 11 13 18 23 26 27 26 23 21 20 21 21 19 15 11 8 8 7 6 5 4 4 2 6 15 18 11 8 11 13 12 12 13 14 16 17 18 16 14 13 12 11 11 12 11 8 8 10 9 8 11 16
17 13 11 11 9 10 10 7 11 20 22 18 15 15 15 15 16 16 17 17 17 17 16 16 17 18 17 16 14 13 13 12 10 9 10 11 15 19 22 22 21 19 17 18 20 22 23 21 19 16 14 11 8 7 6 7 12 16 12 8 10 13 11 10 10 10 10 10 11 12 12 12 12 13 13 14 14 13 10 9 11 11 9 9 10
19 15 12 13 12 10 9 7 7 15 20 17 12 9 8 8 9 10 11 12 12 12 13 13 14 16 17 17 16 15 15 15 14 11 10 10 10 12 15 17 18 18 17 16 16 17 20 22 22 23 22 21 21 20 20 21 20 14 8 8 11 10 7 7 7 8 8 8 8 8 9 10 12 13 14 15 14 14 13 12 12 12 11 10 9
21 18 14 13 13 12 10 7 6 10 16 17 13 9 8 8 9 9 9 10 10 10 10 10 10 11 12 13 14 14 15 16 16 15 14 12 10 9 10 11 13 15 15 15 15 15 15 16 17 19 20 22 23 23 23 20 15 10 8 8 7 4 4 6 7 9 9 9 10 10 10 11 12 13 14 15 15 15 14 13 14 14 12 10 8
21 20 17 13 13 13 11 8 7 7 10 14 15 13 11 10 7 6 7 8 8 8 8 8 8 9 11 11 12 12 12 12 13 14 15 15 15 13 11 10 9 10 11 12 13 14 15 15 15 16 16 17 18 18 17 14 11 8 6 4 3 4 7 9 10 11 10 10 10 11 12 14 15 14 14 14 14 14 14 14 14 13 10 9 9
23 22 19 15 13 13 13 10 7 7 8 10 12 13 14 12 6 4 6 7 7 8 8 9 9 9 10 11 12 12 10 10 10 11 11 13 15 16 16 16 14 12 11 9 8 9 9 10 11 11 12 12 12 12 12 11 10 8 6 6 7 8 10 10 11 11 10 10 11 11 12 14 15 14 14 13 13 13 14 14 13 11 10 11 11
25 24 23 19 15 14 15 13 9 7 7 9 10 11 14 14 8 2 3 6 6 6 7 8 9 10 10 11 12 12 11 10 9 10 10 10 11 12 14 16 17 18 18 17 15 12 10 8 8 7 8 8 8 9 9 9 8 7 7 7 8 9 10 11 12 12 11 11 11 11 12 13 13 14 13 12 12 12 13 14 15 16 16 16 15
24 23 22 21 19 15 15 16 14 9 7 7 9 10 12 15 12 6 2 2 2 3 3 3 4 6 8 10 12 12 12 10 9 10 10 11 11 13 13 12 12 14 16 19 21 22 21 20 18 15 13 11 9 9 9 9 10 10 10 10 10 10 10 11 12 13 13 13 13 13 14 13 12 12 12 11 12 12 11 12 13 16 17 17 17
26 24 20 18 19 17 15 15 16 14 9 7 7 8 9 12 14 12 6 2 1 0 -0 1 1 2 4 7 9 11 12 12 11 11 11 11 12 15 16 15 13 12 13 12 13 16 19 23 26 28 29 28 27 25 22 19 17 16 15 14 14 14 15 16 16 16 15 15 14 14 14 15 14 13 11 11 11 10 10 10 11 11 11 13 16
26 30 26 19 16 17 16 15 16 17 14 10 6 6 7 8 11 14 13 9 6 3 2 1 1 2 3 4 5 8 10 12 12 13 12 10 10 12 16 17 15 14 16 14 11 9 8 8 11 15 20 24 28 30 32 32 31 28 25 22 19 16 15 15 16 17 17 17 17 15 14 14 14 14 12 11 10 9 9 8 9 10 9 11 14
20 27 31 27 20 17 16 14 14 16 17 15 10 6 5 5 7 10 12 12 12 10 9 9 8 8 6 4 3 5 7 9 11 12 12 10 8 7 10 15 15 12 14 16 16 14 13 10 7 4 4 6 8 11 16 20 24 27 29 30 29 28 25 22 19 17 16 15 15 15 14 14 14 14 14 13 11 10 10 10 9 9 9 12 15
15 19 26 31 28 22 19 16 15 15 17 17 16 11 7 5 5 6 8 9 11 11 12 14 15 15 14 10 7 5 5 7 8 10 11 10 10 7 5 7 9 8 10 12 13 15 18 19 18 14 9 7 5 4 4 5 7 10 13 17 22 25 28 30 29 29 27 26 24 22 20 19 17 16 15 15 14 12 12 12 10 9 11 14 13
14 15 19 26 29 26 22 19 17 16 15 17 18 17 13 8 5 5 5 5 6 7 7 9 11 13 15 15 13 10 8 8 8 10 9 9 10 9 7 6 6 6 7 7 8 9 12 16 21 22 20 17 14 10 7 6 7 7 6 7 9 11 14 16 18 21 23 25 26 27 28 28 27 24 20 17 16 16 14 13 12 11 13 14 10
12 14 16 21 27 29 26 21 18 17 15 14 16 18 18 15 10 6 5 4 4 5 4 4 5 7 10 12 14 13 11 11 11 11 10 9 9 9 8 7 6 6 7 8 8 8 9 10 13 16 19 21 21 18 16 12 10 9 8 8 9 11 11 9 6 5 5 8 12 15 19 24 27 30 29 24 20 18 17 17 16 14 12 12 12
9 11 13 16 21 28 30 27 23 21 17 14 14 15 18 20 17 13 9 6 4 4 4 3 2 3 5 7 9 9 9 10 10 9 9 9 9 9 8 8 7 6 6 8 10 11 11 10 9 8 8 12 14 15 17 17 15 13 12 11 10 10 9 6 3 3 4 5 7 7 8 11 15 20 25 27 26 23 21 20 20 18 14 12 12
7 9 11 13 15 20 27 29 28 27 23 18 15 14 15 17 19 19 16 12 8 5 3 3 3 2 2 3 5 6 6 6 6 6 7 7 8 8 7 7 7 6 4 5 7 9 10 11 11 9 6 6 8 8 10 13 15 15 15 15 14 12 10 8 8 10 11 8 6 6 7 9 12 14 14 17 20 22 24 26 25 20 14 10 8
6 7 8 10 11 13 19 24 27 29 28 24 21 18 15 14 16 19 20 19 16 12 7 4 4 3 2 1 2 3 3 4 4 4 4 5 6 6 7 7 7 7 6 5 5 5 6 8 11 12 10 8 7 7 7 7 9 12 14 15 16 17 18 19 18 16 14 10 7 9 10 10 15 20 18 14 14 14 16 21 26 23 15 12 12
5 6 7 9 10 10 13 17 21 24 26 25 24 23 21 18 15 14 16 19 21 20 17 12 8 5 3 2 2 2 2 2 3 3 3 4 3 3 4 4 5 5 5 6 6 6 6 5 6 9 12 11 9 9 9 8 7 10 12 13 15 15 16 20 21 13 7 6 6 9 10 9 14 24 26 21 17 15 12 12 17 20 19 18 20
5 5 7 8 10 11 12 14 17 21 23 23 23 23 24 23 19 15 13 14 17 19 21 21 18 14 10 5 3 3 2 1 0 0 1 2 3 3 3 3 3 3 3 3 4 6 7 7 5 6 7 9 9 10 11 10 9 10 11 13 15 15 15 18 22 18 11 8 7 8 10 9 10 17 24 25 22 21 19 15 13 14 16 18 20
5 5 5 6 8 10 12 13 15 18 20 21 22 22 23 24 23 20 15 12 12 14 16 18 21 22 20 16 12 8 6 4 3 1 0 -1 -1 0 1 1 2 2 2 1 2 3 5 6 7 7 6 6 7 9 10 10 9 9 10 11 13 16 15 15 18 19 18 15 11 9 9 9 7 9 14 19 23 24 24 21 17 14 13 14 15
5 5 5 6 6 7 9 12 15 17 18 18 20 22 22 23 25 26 22 16 12 11 11 13 15 18 20 21 20 18 15 13 11 9 9 8 6 4 2 1 0 -1 0 2 3 3 5 6 6 7 7 7 7 7 8 9 9 9 10 11 12 13 13 13 14 16 18 18 15 12 10 9 9 7 6 9 15 22 27 27 22 17 14 12 13
5 5 5 5 5 6 7 9 11 15 18 18 18 19 20 22 25 27 27 24 18 13 9 9 11 13 15 16 18 19 19 18 16 15 14 15 16 15 14 12 10 8 7 8 9 9 10 9 7 6 7 8 8 8 7 8 9 10 11 12 11 11 12 13 14 15 16 19 21 22 21 19 15 10 7 6 7 14 23 28 28 24 19 14 12
5 5 5 5 5 5 6 7 8 10 13 17 20 18 17 19 23 26 28 28 26 21 15 10 8 9 10 12 13 15 16 16 17 17 16 15 15 16 17 17 17 16 16 15 16 17 17 14 11 8 7 8 9 10 10 8 7 10 13 11 9 11 12 11 10 11 12 14 17 21 24 26 25 19 13 9 6 7 13 21 27 29 26 20 16
Height
5514 5511 5508 5505 5503 5501 5500 5499 5497 5496 5494 5492 5491 5489 5488 5487 5487 5487 5485 5483 5482 5481 5480 5479 5479 5479 5480 5481 5481 5481 5481 5481 5482 5484 5485 5487 5489 5491 5493 5495 5497 5500 5501 5504 5506 5508 5511 5514 5518 5521 5524 5527 5531 5534 5537 5540 5544 5547 5551 5555 5559 5562 5566 5569 5572 5575 5579 5582 5585 5590 5595 5598 5602 5606 5609 5612 5615 5619 5622 5624 5627 5630 5633 5638 5641
5508 5504 5501 5498 5496 5494 5492 5491 5489 5488 5486 5484 5482 5480 5478 5477 5476 5475 5475 5473 5472 5470 5469 5468 5467 5466 5467 5467 5468 5469 5469 5469 5470 5471 5472 5474 5476 5478 5481 5483 5486 5488 5490 5492 5495 5497 5499 5502 5505 5509 5512 5516 5519 5522 5526 5529 5533 5536 5540 5543 5547 5551 5555 5559 5562 5566 5569 5573 5576 5580 5585 5589 5592 5596 5601 5605 5607 5609 5613 5617 5620 5623 5626 5630 5633
5502 5498 5495 5492 5489 5486 5484 5482 5481 5479 5478 5476 5474 5471 5469 5466 5464 5462 5462 5461 5461 5460 5459 5457 5456 5455 5454 5453 5454 5455 5455 5456 5457 5458 5459 5461 5463 5465 5468 5470 5473 5476 5478 5480 5483 5485 5487 5490 5493 5496 5500 5504 5507 5511 5514 5518 5521 5525 5529 5533 5536 5540 5544 5548 5552 5556 5559 5563 5567 5571 5575 5578 5581 5587 5591 5595 5598 5600 5604 5608 5612 5616 5618 5620 5623
5496 5493 5489 5485 5482 5479 5476 5474 5472 5470 5469 5467 5465 5463 5461 5458 5454 5451 5449 5448 5447 5446 5445 5444 5442 5442 5441 5440 5439 5439 5440 5441 5443 5445 5446 5448 5450 5452 5454 5457 5459 5462 5465 5467 5470 5472 5474 5477 5480 5483 5487 5491 5494 5498 5502 5506 5510 5513 5517 5521 5525 5529 5533 5537 5541 5546 5549 5553 5557 5561 5564 5567 5572 5578 5580 5583 5587 5591 5595 5599 5603 5607 5610 5612 5615
5490 5485 5482 5478 5475 5472 5469 5466 5463 5461 5459 5457 5456 5454 5452 5450 5447 5444 5441 5438 5436 5434 5432 5429 5428 5427 5427 5427 5426 5426 5426 5426 5428 5430 5432 5434 5436 5438 5440 5443 5445 5448 5451 5454 5457 5459 5461 5464 5467 5470 5474 5477 5481 5484 5489 5493 5497 5501 5506 5510 5513 5517 5522 5526 5530 5535 5539 5543 5546 5550 5554 5556 5562 5567 5568 5572 5577 5581 5586 5590 5594 5598 5602 5604 5607
5483 5478 5474 5470 5467 5464 5461 5457 5454 5451 5449 5447 5445 5443 5441 5439 5437 5435 5432 5430 5427 5425 5421 5418 5415 5414 5413 5413 5413 5412 5412 5413 5413 5415 5417 5419 5422 5424 5426 5428 5431 5434 5437 5440 5443 5445 5448 5451 5453 5457 5460 5464 5467 5471 5475 5480 5484 5488 5493 5498 5501 5505 5510 5514 5519 5524 5528 5531 5535 5540 5543 5546 5552 5556 5557 5562 5567 5572 5576 5580 5584 5588 5591 5595 5599
5475 5470 5465 5461 5458 5455 5453 5450 5447 5444 5441 5438 5435 5432 5430 5428 5426 5424 5421 5418 5415 5412 5409 5404 5402 5400 5398 5398 5398 5397 5397 5398 5399 5401 5403 5404 5406 5409 5411 5414 5417 5420 5423 5426 5428 5431 5433 5436 5440 5443 5446 5450 5454 5457 5462 5466 5471 5475 5480 5484 5488 5492 5498 5503 5508 5513 5516 5520 5525 5528 5532 5536 5541 5544 5547 5551 5557 5562 5566 5570 5575 5578 5581 5585 5591
5466 5462 5458 5455 5452 5449 5446 5443 5440 5436 5433 5431 5427 5424 5421 5419 5417 5414 5411 5407 5402 5398 5393 5390 5387 5384 5382 5382 5382 5381 5380 5381 5383 5385 5388 5390 5392 5394 5396 5399 5403 5406 5409 5412 5414 5415 5418 5421 5425 5428 5432 5436 5440 5443 5448 5453 5458 5463 5467 5471 5474 5479 5484 5490 5496 5500 5505 5510 5514 5517 5522 5526 5529 5532 5537 5541 5546 5550 5556 5562 5565 5568 5571 5575 5580
5461 5457 5454 5451 5448 5444 5440 5437 5433 5429 5426 5423 5420 5416 5413 5410 5408 5404 5400 5395 5390 5385 5380 5376 5372 5370 5368 5367 5367 5367 5366 5366 5367 5369 5371 5373 5375 5378 5381 5384 5387 5390 5393 5397 5399 5400 5402 5405 5408 5412 5416 5421 5425 5428 5434 5440 5445 5449 5454 5458 5461 5466 5471 5476 5482 5487 5493 5498 5502 5506 5511 5515 5518 5522 5526 5531 5535 5539 5546 5552 5554 5557 5561 5566 5570
5457 5454 5451 5448 5444 5440 5435 5431 5427 5422 5418 5415 5411 5408 5404 5402 5399 5396 5391 5386 5380 5375 5369 5364 5360 5357 5355 5354 5354 5353 5352 5351 5351 5353 5354 5355 5357 5361 5364 5367 5370 5374 5376 5379 5382 5384 5386 5390 5393 5396 5400 5405 5409 5413 5419 5426 5432 5436 5441 5445 5449 5453 5457 5462 5468 5473 5479 5485 5490 5494 5499 5503 5507 5511 5515 5519 5524 5529 5534 5540 5544 5546 5551 5557 5560
5455 5452 5448 5445 5440 5435 5430 5426 5422 5417 5413 5408 5404 5400 5396 5393 5390 5387 5383 5378 5373 5367 5361 5356 5351 5347 5344 5342 5341 5340 5338 5337 5337 5337 5337 5338 5340 5343 5346 5349 5353 5356 5358 5361 5365 5367 5370 5374 5377 5380 5384 5389 5394 5399 5405 5413 5418 5422 5428 5432 5436 5441 5444 5449 5455 5460 5465 5471 5477 5481 5486 5491 5495 5499 5504 5508 5512 5517 5522 5528 5532 5535 5540 5546 5550
5452 5448 5445 5440 5435 5430 5425 5421 5416 5412 5408 5403 5398 5394 5389 5386 5383 5380 5376 5371 5366 5361 5355 5350 5345 5340 5336 5333 5330 5328 5327 5325 5324 5324 5323 5323 5324 5326 5329 5332 5335 5338 5340 5342 5346 5350 5354 5359 5361 5364 5368 5373 5379 5385 5392 5399 5404 5409 5413 5417 5422 5427 5432 5437 5442 5447 5452 5458 5463 5467 5472 5478 5483 5487 5493 5496 5500 5505 5510 5515 5520 5523 5528 5535 5539
5449 5444 5440 5435 5430 5426 5421 5416 5411 5406 5401 5397 5392 5388 5384 5379 5376 5373 5369 5365 5361 5356 5350 5345 5340 5335 5330 5326 5323 5320 5318 5316 5314 5313 5312 5311 5310 5311 5312 5314 5316 5320 5323 5325 5329 5333 5337 5343 5346 5349 5353 5358 5365 5373 5379 5385 5390 5395 5400 5404 5409 5414 5419 5424 5429 5435 5440 5444 5450 5454 5458 5464 5470 5475 5480 5483 5487 5492 5497 5502 5508 5511 5515 5522 5528
5445 5441 5436 5432 5427 5422 5417 5411 5406 5400 5394 5390 5386 5382 5378 5373 5370 5366 5363 5359 5355 5350 5345 5340 5335 5331 5326 5322 5318 5314 5311 5308 5306 5304 5302 5300 5299 5299 5298 5299 5300 5303 5305 5309 5312 5316 5320 5325 5330 5333 5338 5344 5352 5360 5366 5372 5377 5381 5386 5392 5397 5402 5406 5411 5417 5422 5426 5432 5438 5442 5446 5451 5457 5462 5466 5470 5475 5479 5484 5489 5495 5498 5501 5509 5514
5442 5437 5432 5427 5423 5418 5413 5407 5401 5395 5390 5384 5380 5376 5372 5368 5364 5360 5357 5353 5349 5345 5340 5336 5331 5326 5322 5317 5314 5310 5306 5303 5299 5296 5294 5292 5290 5289 5288 5287 5287 5289 5290 5293 5297 5300 5303 5307 5313 5317 5322 5330 5339 5346 5353 5359 5364 5368 5373 5379 5384 5389 5394 5399 5404 5408 5413 5419 5424 5428 5433 5438 5444 5448 5452 5456 5461 5465 5470 5475 5479 5483 5488 5495 5500
5439 5434 5429 5424 5419 5413 5408 5402 5397 5391 5386 5381 5376 5371 5367 5363 5359 5355 5351 5348 5344 5340 5335 5331 5327 5322 5318 5314 5309 5305 5302 5298 5295 5291 5288 5285 5282 5281 5279 5278 5277 5277 5278 5280 5282 5285 5288 5292 5298 5303 5308 5317 5325 5332 5339 5345 5350 5355 5360 5365 5371 5376 5381 5387 5392 5396 5401 5407 5411 5414 5420 5426 5431 5434 5437 5441 5446 5450 5456 5460 5464 5469 5474 5480 5486
5437 5431 5426 5421 5416 5410 5405 5399 5393 5388 5383 5377 5372 5367 5363 5359 5355 5351 5347 5343 5340 5336 5331 5327 5323 5319 5314 5310 5306 5302 5298 5294 5290 5287 5283 5279 5276 5274 5272 5271 5270 5269 5269 5270 5272 5274 5276 5281 5286 5291 5296 5303 5311 5318 5325 5331 5336 5341 5347 5352 5357 5362 5368 5373 5378 5384 5389 5394 5397 5402 5407 5413 5417 5419 5422 5426 5432 5436 5441 5445 5450 5455 5459 5464 5470
5435 5429 5424 5418 5412 5407 5402 5396 5390 5385 5379 5374 5369 5364 5359 5355 5351 5347 5343 5339 5336 5332 5328 5323 5319 5315 5311 5306 5302 5298 5294 5290 5286 5283 5279 5275 5272 5269 5266 5265 5263 5262 5262 5263 5264 5266 5269 5273 5277 5281 5286 5293 5301 5307 5313 5318 5323 5328 5334 5339 5344 5350 5355 5360 5365 5371 5376 5380 5385 5390 5394 5400 5404 5405 5408 5412 5417 5421 5426 5431 5436 5441 5445 5448 5454
5434 5428 5422 5416 5410 5404 5399 5393 5387 5381 5376 5371 5366 5361 5356 5352 5348 5344 5339 5335 5331 5328 5324 5320 5315 5311 5307 5303 5299 5294 5290 5286 5283 5279 5275 5272 5268 5265 5262 5260 5258 5257 5257 5258 5259 5261 5263 5267 5271 5275 5280 5286 5293 5298 5304 5308 5313 5318 5323 5328 5333 5338 5343 5349 5353 5358 5363 5367 5372 5376 5380 5386 5390 5391 5394 5398 5402 5407 5411 5417 5422 5426 5430 5433 5439
5432 5426 5420 5415 5409 5402 5395 5389 5383 5377 5372 5367 5362 5358 5353 5349 5345 5340 5336 5331 5327 5323 5319 5316 5312 5308 5304 5299 5295 5291 5286 5282 5278 5275 5272 5269 5265 5262 5259 5257 5255 5254 5253 5254 5255 5256 5259 5262 5266 5271 5275 5280 5285 5290 5295 5300 5304 5309 5314 5319 5324 5329 5334 5339 5343 5347 5352 5355 5359 5363 5366 5371 5374 5376 5380 5384 5388 5392 5396 5401 5406 5410 5414 5417 5424
5430 5424 5418 5413 5406 5399 5393 5386 5380 5374 5369 5364 5359 5355 5351 5346 5342 5338 5333 5329 5324 5320 5316 5312 5309 5305 5301 5297 5292 5288 5283 5279 5275 5271 5268 5265 5263 5261 5258 5255 5253 5252 5251 5251 5252 5253 5256 5259 5262 5266 5271 5275 5279 5284 5288 5293 5297 5302 5307 5312 5317 5322 5327 5332 5335 5339 5342 5345 5348 5352 5355 5358 5360 5363 5367 5371 5374 5377 5380 5385 5389 5394 5398 5402 5408
5428 5422 5417 5411 5405 5398 5391 5384 5378 5372 5366 5362 5357 5353 5348 5344 5340 5336 5332 5327 5323 5318 5314 5310 5306 5303 5299 5295 5290 5286 5281 5277 5272 5268 5265 5262 5260 5259 5257 5255 5253 5252 5251 5251 5251 5253 5254 5257 5260 5263 5267 5271 5275 5280 5284 5289 5294 5298 5303 5307 5312 5317 5321 5325 5329 5331 5334 5337 5340 5343 5345 5347 5349 5353 5357 5359 5360 5363 5365 5369 5373 5377 5382 5387 5392
5426 5421 5415 5409 5403 5396 5389 5383 5376 5370 5365 5360 5355 5351 5347 5343 5339 5335 5330 5326 5321 5317 5313 5309 5305 5301 5297 5293 5289 5284 5280 5275 5270 5266 5263 5260 5258 5256 5256 5255 5254 5253 5252 5252 5253 5254 5255 5257 5259 5262 5266 5270 5273 5278 5282 5286 5291 5295 5300 5304 5308 5313 5316 5320 5323 5325 5327 5330 5332 5335 5337 5339 5341 5344 5347 5348 5349 5351 5354 5357 5360 5363 5367 5372 5376
5425 5420 5414 5408 5401 5395 5388 5382 5375 5369 5364 5359 5354 5350 5346 5342 5338 5334 5329 5325 5321 5316 5312 5308 5304 5300 5296 5292 5288 5283 5278 5273 5269 5265 5261 5258 5256 5254 5254 5254 5254 5253 5253 5254 5254 5255 5256 5258 5260 5263 5266 5269 5273 5277 5281 5285 5289 5293 5297 5301 5305 5309 5312 5314 5317 5319 5321 5324 5326 5328 5330 5331 5333 5335 5337 5339 5340 5342 5344 5346 5349 5351 5354 5358 5362
5426 5420 5413 5407 5401 5394 5388 5381 5375 5369 5363 5357 5353 5349 5345 5341 5337 5333 5329 5325 5320 5316 5312 5307 5303 5299 5295 5291 5287 5283 5278 5273 5268 5263 5259 5256 5254 5253 5253 5253 5253 5253 5254 5254 5255 5256 5258 5260 5262 5264 5267 5270 5273 5277 5280 5284 5287 5291 5295 5298 5302 5305 5307 5309 5312 5314 5316 5318 5320 5322 5324 5325 5326 5328 5330 5331 5332 5334 5335 5336 5339 5341 5343 5346 5349
5426 5419 5413 5407 5400 5394 5388 5381 5374 5368 5362 5357 5352 5348 5344 5341 5337 5333 5329 5325 5320 5316 5312 5308 5304 5300 5296 5292 5287 5283 5278 5273 5268 5263 5259 5256 5254 5253 5252 5252 5253 5253 5254 5255 5256 5257 5259 5260 5262 5265 5267 5270 5273 5276 5279 5282 5285 5289 5292 5296 5298 5300 5303 5305 5307 5309 5311 5313 5315 5317 5318 5319 5321 5322 5323 5325 5326 5327 5328 5329 5331 5333 5334 5336 5337
5424 5418 5412 5406 5401 5395 5388 5381 5374 5367 5361 5356 5352 5347 5344 5340 5336 5333 5329 5325 5321 5317 5313 5309 5305 5301 5297 5292 5288 5284 5280 5275 5271 5266 5261 5258 5255 5254 5253 5253 5253 5254 5255 5255 5256 5257 5259 5261 5263 5265 5267 5270 5272 5275 5278 5280 5283 5287 5290 5292 5294 5296 5299 5301 5303 5304 5306 5308 5310 5311 5313 5314 5315 5317 5318 5319 5320 5321 5322 5323 5325 5326 5327 5328 5329
5422 5417 5412 5407 5401 5395 5388 5381 5374 5367 5362 5357 5352 5348 5344 5340 5336 5333 5329 5325 5321 5318 5314 5310 5306 5302 5298 5294 5290 5286 5282 5278 5274 5269 5265 5261 5258 5256 5255 5255 5255 5255 5256 5256 5257 5258 5260 5261 5263 5264 5266 5268 5271 5273 5276 5278 5281 5284 5286 5288 5290 5292 5294 5296 5298 5300 5301 5303 5305 5307 5308 5309 5310 5311 5312 5313 5315 5315 5316 5317 5319 5320 5320 5322 5323
5422 5417 5413 5407 5401 5395 5389 5382 5375 5369 5363 5358 5353 5350 5345 5341 5338 5334 5330 5326 5322 5319 5315 5311 5308 5304 5300 5296 5292 5288 5284 5281 5277 5273 5269 5265 5262 5260 5258 5257 5257 5257 5257 5258 5258 5259 5260 5261 5263 5264 5265 5267 5269 5271 5274 5276 5279 5281 5283 5285 5287 5289 5290 5292 5294 5295 5297 5299 5300 5302 5303 5304 5305 5306 5307 5308 5309 5310 5310 5312 5313 5314 5315 5316 5318
5422 5418 5413 5407 5401 5396 5390 5383 5377 5371 5365 5360 5356 5352 5348 5344 5340 5336 5332 5328 5324 5321 5317 5313 5309 5305 5302 5298 5294 5290 5287 5283 5280 5277 5273 5270 5267 5264 5262 5260 5259 5259 5259 5259 5259 5260 5261 5262 5263 5264 5265 5266 5268 5270 5272 5274 5277 5278 5280 5282 5284 5285 5287 5289 5290 5291 5293 5294 5295 5296 5297 5298 5299 5301 5302 5303 5304 5304 5305 5307 5308 5309 5310 5311 5312
5423 5417 5413 5407 5402 5396 5390 5385 5379 5373 5367 5363 5359 5355 5351 5347 5343 5339 5334 5330 5327 5323 5319 5315 5311 5308 5304 5300 5296 5292 5289 5286 5283 5279 5276 5273 5271 5268 5266 5264 5263 5262 5261 5261 5261 5261 5261 5262 5263 5264 5265 5266 5267 5269 5270 5272 5274 5275 5277 5279 5281 5282 5284 5285 5286 5287 5288 5289 5290 5291 5291 5292 5294 5295 5296 5297 5298 5299 5300 5302 5303 5304 5305 5306 5307
5423 5418 5413 5408 5402 5397 5391 5386 5381 5375 5370 5365 5361 5357 5353 5350 5346 5342 5337 5333 5329 5326 5322 5318 5314 5310 5306 5302 5299 5295 5292 5289 5285 5282 5279 5276 5274 5271 5269 5268 5266 5265 5264 5263 5262 5262 5262 5262 5263 5263 5264 5265 5266 5267 5268 5270 5271 5273 5275 5276 5278 5279 5280 5281 5282 5283 5284 5284 5285 5286 5287 5288 5289 5290 5291 5292 5293 5294 5295 5296 5298 5299 5300 5301 5302
5424 5419 5413 5408 5403 5397 5392 5387 5382 5377 5372 5367 5363 5359 5355 5352 5349 5345 5340 5336 5332 5328 5324 5320 5316 5313 5309 5305 5302 5298 5295 5292 5288 5285 5282 5279 5276 5274 5272 5270 5269 5267 5266 5265 5264 5264 5263 5263 5263 5263 5264 5264 5265 5266 5267 5268 5270 5271 5272 5274 5275 5275 5276 5277 5278 5279 5279 5280 5281 5282 5282 5283 5284 5285 5286 5286 5288 5289 5290 5291 5293 5294 5295 5296 5298
5424 5418 5413 5408 5403 5398 5393 5388 5383 5378 5373 5369 5365 5361 5357 5354 5350 5347 5343 5338 5334 5331 5327 5323 5319 5315 5311 5308 5304 5301 5298 5295 5291 5288 5285 5282 5279 5277 5274 5273 5271 5269 5268 5267 5266 5265 5265 5264 5264 5264 5264 5264 5265 5266 5267 5267 5268 5269 5270 5271 5271 5272 5273 5274 5274 5275 5275 5276 5277 5277 5278 5279 5280 5280 5281 5282 5283 5284 5285 5287 5288 5289 5291 5292 5293
5425 5418 5413 5408 5403 5398 5393 5388 5383 5379 5374 5369 5365 5361 5358 5355 5351 5348 5344 5340 5337 5333 5329 5325 5321 5318 5314 5310 5307 5304 5300 5297 5294 5291 5288 5285 5282 5279 5277 5275 5273 5271 5270 5268 5267 5266 5266 5265 5265 5264 5264 5264 5265 5265 5265 5266 5266 5267 5267 5268 5268 5269 5269 5270 5270 5271 5271 5272 5273 5273 5274 5275 5275 5276 5277 5278 5279 5280 5281 5282 5284 5285 5286 5288 5289
5426 5419 5413 5408 5403 5398 5394 5389 5384 5379 5375 5370 5366 5362 5359 5355 5352 5348 5345 5342 5338 5334 5330 5327 5323 5319 5316 5312 5309 5306 5303 5300 5297 5293 5290 5287 5284 5282 5279 5277 5275 5273 5271 5269 5268 5267 5266 5265 5265 5264 5264 5264 5264 5264 5264 5264 5264 5264 5265 5265 5265 5265 5266 5266 5267 5267 5268 5268 5269 5269 5270 5271 5271 5272 5273 5274 5275 5276 5277 5278 5279 5281 5282 5283 5285
5427 5420 5413 5407 5403 5398 5393 5389 5384 5380 5375 5371 5367 5363 5359 5356 5352 5349 5345 5342 5339 5335 5332 5328 5324 5321 5318 5314 5311 5308 5305 5302 5299 5296 5293 5290 5287 5284 5281 5279 5276 5274 5272 5271 5269 5268 5267 5266 5265 5264 5263 5263 5263 5262 5262 5262 5262 5262 5262 5262 5262 5262 5262 5263 5263 5263 5264 5264 5265 5265 5266 5267 5268 5268 5269 5270 5271 5272 5272 5274 5275 5277 5278 5279 5281
5428 5421 5414 5407 5402 5397 5392 5388 5384 5379 5375 5371 5367 5363 5360 5356 5352 5349 5345 5342 5339 5336 5333 5329 5326 5322 5319 5316 5312 5309 5306 5303 5300 5297 5294 5292 5289 5286 5283 5281 5278 5276 5274 5272 5271 5269 5268 5267 5265 5264 5263 5262 5262 5261 5260 5260 5260 5259 5259 5259 5259 5259 5259 5259 5259 5260 5260 5261 5261 5262 5262 5263 5264 5264 5265 5265 5266 5267 5268 5269 5271 5273 5274 5275 5277
5430 5422 5416 5409 5402 5397 5392 5387 5383 5379 5374 5370 5367 5364 5360 5356 5353 5349 5345 5342 5339 5336 5333 5330 5327 5323 5320 5317 5313 5310 5308 5305 5302 5299 5296 5293 5290 5288 5285 5283 5280 5278 5276 5274 5272 5271 5269 5268 5266 5265 5264 5263 5262 5261 5260 5259 5258 5258 5257 5256 5256 5256 5256 5256 5256 5256 5256 5257 5257 5258 5258 5259 5259 5260 5260 5261 5262 5263 5264 5265 5267 5268 5270 5272 5274
5431 5424 5417 5411 5404 5398 5392 5387 5382 5378 5374 5370 5367 5363 5360 5357 5353 5350 5346 5342 5339 5336 5333 5330 5327 5324 5321 5318 5315 5312 5309 5306 5303 5300 5297 5295 5292 5289 5287 5284 5282 5279 5277 5275 5273 5271 5270 5268 5266 5265 5264 5263 5262 5260 5259 5258 5258 5257 5256 5255 5255 5254 5253 5253 5253 5253 5253 5253 5253 5253 5254 5254 5255 5255 5256 5256 5257 5258 5260 5261 5263 5264 5266 5269 5270
5434 5426 5418 5412 5405 5399 5393 5388 5383 5378 5374 5370 5366 5363 5359 5356 5353 5350 5347 5343 5340 5336 5333 5330 5328 5325 5322 5318 5315 5313 5310 5307 5304 5301 5298 5296 5293 5291 5288 5285 5283 5280 5278 5276 5274 5272 5270 5268 5267 5265 5264 5262 5261 5260 5259 5258 5257 5256 5255 5254 5254 5253 5252 5251 5251 5251 5250 5250 5250 5250 5250 5250 5250 5251 5251 5252 5253 5254 5255 5257 5258 5260 5263 5264 5265
5436 5428 5420 5413 5406 5399 5393 5387 5382 5377 5373 5369 5365 5362 5358 5355 5352 5349 5346 5343 5340 5337 5334 5331 5328 5325 5322 5319 5316 5313 5310 5307 5305 5302 5299 5297 5294 5292 5289 5287 5284 5281 5279 5277 5275 5273 5271 5269 5267 5265 5264 5262 5261 5260 5258 5257 5256 5255 5254 5253 5253 5252 5251 5251 5250 5250 5249 5249 5248 5248 5247 5247 5247 5247 5247 5247 5248 5249 5250 5252 5254 5256 5258 5259 5260
5439 5431 5423 5415 5408 5401 5394 5387 5382 5377 5372 5368 5364 5361 5357 5354 5351 5348 5345 5342 5340 5337 5334 5331 5328 5325 5322 5319 5316 5313 5310 5308 5305 5302 5300 5297 5294 5292 5290 5287 5285 5282 5280 5278 5276 5274 5272 5270 5268 5266 5264 5262 5261 5260 5258 5257 5255 5254 5253 5252 5251 5250 5250 5249 5249 5248 5248 5247 5246 5246 5245 5245 5244 5244 5243 5243 5244 5244 5246 5248 5250 5251 5253 5254 5255
5441 5433 5425 5418 5410 5403 5396 5389 5383 5377 5372 5367 5363 5359 5356 5353 5349 5346 5343 5340 5338 5335 5333 5330 5327 5324 5321 5319 5316 5313 5310 5307 5305 5302 5299 5297 5294 5292 5289 5287 5285 5282 5280 5278 5276 5274 5272 5270 5268 5266 5264 5262 5260 5259 5257 5256 5255 5253 5252 5251 5250 5249 5248 5247 5247 5246 5245 5245 5244 5243 5243 5242 5241 5241 5240 5240 5240 5240 5242 5243 5245 5246 5247 5248 5249
5442 5435 5427 5419 5412 5406 5399 5391 5384 5378 5372 5367 5362 5358 5354 5351 5348 5345 5341 5338 5335 5333 5330 5328 5325 5323 5320 5318 5315 5313 5310 5307 5304 5302 5299 5296 5294 5292 5289 5287 5284 5282 5280 5278 5275 5273 5271 5269 5268 5266 5264 5262 5260 5258 5257 5255 5254 5252 5251 5250 5248 5247 5246 5245 5244 5243 5243 5242 5242 5241 5240 5239 5238 5237 5237 5237 5237 5237 5238 5239 5240 5241 5242 5243 5245
5444 5436 5428 5420 5413 5406 5399 5391 5385 5378 5372 5367 5362 5358 5354 5350 5346 5343 5340 5337 5334 5331 5328 5325 5323 5321 5318 5316 5313 5311 5309 5306 5303 5301 5298 5296 5293 5291 5289 5286 5284 5282 5279 5277 5275 5273 5270 5268 5267 5265 5264 5262 5260 5258 5256 5254 5253 5251 5250 5248 5247 5245 5244 5243 5242 5241 5241 5240 5239 5238 5237 5237 5236 5234 5234 5233 5234 5234 5234 5235 5236 5237 5238 5240 5242
5446 5438 5430 5422 5415 5407 5400 5393 5386 5379 5373 5367 5362 5357 5353 5349 5345 5342 5339 5336 5332 5329 5326 5323 5321 5318 5316 5313 5310 5309 5307 5305 5302 5299 5297 5294 5292 5290 5287 5285 5283 5281 5278 5276 5274 5272 5270 5268 5265 5264 5262 5261 5259 5257 5255 5253 5252 5250 5248 5247 5245 5244 5242 5241 5240 5239 5239 5238 5237 5236 5235 5234 5233 5232 5231 5231 5231 5231 5231 5232 5232 5233 5234 5236 5238
5448 5440 5433 5425 5417 5410 5403 5396 5389 5381 5374 5368 5362 5357 5352 5348 5344 5340 5337 5333 5331 5328 5324 5321 5319 5316 5313 5310 5308 5305 5303 5301 5300 5298 5295 5292 5290 5288 5285 5283 5281 5279 5277 5275 5273 5271 5269 5267 5264 5262 5261 5259 5257 5256 5254 5252 5251 5249 5247 5245 5244 5242 5241 5239 5238 5237 5236 5235 5234 5233 5232 5231 5230 5230 5229 5229 5228 5228 5228 5228 5229 5230 5231 5233 5234
5449 5442 5435 5427 5420 5412 5405 5399 5392 5384 5377 5370 5363 5357 5351 5347 5342 5338 5335 5331 5328 5325 5322 5319 5316 5313 5311 5308 5305 5302 5300 5297 5295 5294 5292 5290 5288 5286 5283 5281 5279 5277 5275 5273 5271 5269 5267 5265 5263 5261 5259 5257 5256 5254 5253 5251 5249 5248 5246 5244 5242 5241 5239 5238 5237 5235 5234 5233 5232 5231 5230 5228 5228 5227 5227 5226 5226 5225 5225 5225 5226 5227 5228 5230 5231
5449 5442 5435 5428 5421 5414 5407 5401 5393 5386 5379 5372 5364 5358 5352 5347 5342 5337 5333 5329 5326 5322 5319 5316 5314 5311 5308 5305 5302 5300 5297 5294 5291 5289 5287 5285 5284 5283 5281 5279 5276 5274 5272 5270 5268 5267 5265 5263 5261 5259 5257 5255 5254 5252 5251 5249 5248 5246 5245 5243 5242 5240 5238 5237 5235 5234 5232 5231 5229 5228 5227 5226 5225 5224 5224 5224 5224 5223 5223 5223 5223 5224 5225 5227 5228
5448 5442 5435 5429 5422 5415 5408 5400 5393 5386 5381 5374 5367 5360 5353 5347 5342 5337 5332 5328 5324 5320 5317 5314 5311 5308 5305 5302 5299 5297 5294 5291 5288 5285 5282 5280 5278 5277 5276 5275 5273 5271 5269 5266 5264 5263 5261 5260 5258 5256 5255 5253 5251 5250 5249 5248 5246 5245 5244 5242 5241 5239 5237 5235 5234 5232 5230 5229 5227 5226 5224 5223 5222 5222 5221 5221 5221 5221 5221 5221 5221 5221 5223 5224 5226